EB5EEV-5 Weather Reports


Display with metric or nautical units.
time (UTC)temp
F
wind
direction
speed
MPH
gust
MPH
rain 1hr
in
rain 24hr
in
rain mn
in
humidity
%
barometer
mb
20260505041652 60 0 0.0 0.0 0.00 0.00 0.00 9 1007.8
20260505040407 60 0 0.0 0.0 0.00 0.00 0.00 9 1007.8
20260505034942 60 0 0.0 0.0 0.00 0.00 0.00 9 1007.9
20260505033547 60 0 0.0 0.0 0.00 0.00 0.00 9 1007.9
20260505032222 61 0 0.0 0.0 0.00 0.00 0.00 9 1007.9
20260505030842 61 122 1.0 1.0 0.00 0.00 0.00 9 1008.0
20260505025617 60 126 2.0 3.0 0.00 0.00 0.00 9 1007.9
20260505024247 60 131 3.0 4.0 0.00 0.00 0.00 9 1008.1
20260505022949 61 130 1.0 1.0 0.00 0.00 0.00 9 1008.1
20260505021747 61 130 1.0 1.0 0.00 0.00 0.00 9 1008.1
20260505020322 61 0 0.0 0.0 0.00 0.00 0.00 9 1008.3
20260505015100 61 128 1.0 2.0 0.00 0.00 0.00 9 1008.3
20260505013832 62 0 0.0 0.0 0.00 0.00 0.00 9 1008.4
20260505012502 62 0 0.0 0.0 0.00 0.00 0.00 9 1008.4
20260505011219 62 0 0.0 0.0 0.00 0.00 0.00 9 1008.6
20260505005949 62 0 0.0 1.0 0.00 0.00 0.00 9 1008.7
20260505004451 62 0 0.0 0.0 0.00 0.00 0.00 9 1008.7
20260505003053 62 0 0.0 0.0 0.00 0.00 0.00 9 1008.7
20260505001637 62 0 0.0 0.0 0.00 0.00 0.00 9 1008.7
20260505000321 62 0 0.0 1.0 0.00 0.00 0.00 9 1008.7
20260504235021 63 0 0.0 1.0 0.00 0.00 0.00 9 1008.9
20260504233707 63 0 0.0 1.0 0.00 0.00 0.00 8 1008.8
20260504232347 63 0 0.0 0.0 0.00 0.00 0.00 9 1008.8
20260504230937 64 0 0.0 0.0 0.00 0.00 0.00 8 1008.8
20260504225511 64 0 0.0 0.0 0.00 0.00 0.00 8 1008.8
20260504224117 64 337 1.0 2.0 0.00 0.00 0.00 8 1008.7
20260504222847 65 0 0.0 0.0 0.00 0.00 0.00 8 1008.5
20260504221433 73 0 0.0 2.0 0.00 0.00 0.94 7 1006.0
20260504220051 73 0 0.0 2.0 0.00 0.00 0.94 7 1006.0
20260504214821 73 0 0.0 2.0 0.00 0.00 0.94 7 1006.0
20260504213404 73 0 0.0 2.0 0.00 0.00 0.94 7 1006.0
20260504212207 73 0 0.0 2.0 0.00 0.00 0.94 7 1006.0
20260504210825 73 0 0.0 2.0 0.00 0.00 0.94 7 1006.0
20260504205517 73 0 0.0 2.0 0.00 0.00 0.94 7 1006.0
20260504204106 73 0 0.0 2.0 0.00 0.00 0.94 7 1006.0
20260504202745 73 0 0.0 2.0 0.00 0.00 0.94 7 1006.0
20260504201500 73 0 0.0 2.0 0.00 0.00 0.94 7 1006.0
20260504194750 73 0 0.0 2.0 0.00 0.00 0.94 7 1006.0
20260504193317 73 0 0.0 2.0 0.00 0.00 0.94 7 1006.0
20260504192117 73 0 0.0 2.0 0.00 0.00 0.94 7 1006.0
20260504190906 73 0 0.0 2.0 0.00 0.00 0.94 7 1006.0
20260504185602 73 0 0.0 2.0 0.00 0.00 0.94 7 1006.0
20260504184132 73 0 0.0 2.0 0.00 0.00 0.94 7 1006.0
20260504182648 73 0 0.0 2.0 0.00 0.00 0.94 7 1006.0
20260504181216 73 0 0.0 2.0 0.00 0.00 0.94 7 1006.0
20260504175932 73 0 0.0 2.0 0.00 0.00 0.94 7 1006.0
20260504174452 73 0 0.0 2.0 0.00 0.00 0.94 7 1006.0
20260504173215 73 0 0.0 2.0 0.00 0.00 0.94 7 1006.0
20260504171942 73 0 0.0 2.0 0.00 0.00 0.94 7 1006.0
20260504170622 73 0 0.0 2.0 0.00 0.00 0.94 7 1006.0
20260504150615 69 252 1.0 2.0 0.00 0.00 0.91 8 1006.8
20260504141044 67 326 2.0 4.0 0.00 0.00 0.91 8 1007.5
20260504130421 65 352 3.0 3.0 0.02 0.00 0.91 9 1008.2
20260504081001 67 289 2.0 3.0 0.00 0.00 0.00 8 1009.1
20260504070208 67 0 0.0 0.0 0.00 0.00 0.00 8 1009.0
20260504045521 62 139 1.0 1.0 0.00 0.00 0.00 8 1008.8
20260504044253 63 0 0.0 0.0 0.00 0.00 0.00 8 1008.8
20260504042906 63 0 0.0 0.0 0.00 0.00 0.00 8 1008.9
20260504041706 63 0 0.0 0.0 0.00 0.00 0.00 8 1008.9